Skip Page Navigation
NASA JPL Caltech
NASA Logo - Jet Propulsion Laboratory + View the NASA Portal
+ Center for Near-Earth Object Studies
JPL Home Earth Solar System Stars & Galaxies Technology
JPL Solar System Dynamics
BODIES ORBITS EPHEMERIDES TOOLS PHYSICAL DATA DISCOVERY FAQ SITE MAP
JPL Small-Body Database Browser
Search: [ help ]  
86399 (2000 AV140)
Classification: Main-belt Asteroid          SPK-ID: 2086399
Ephemeris | Orbit Diagram | Orbital Elements | Mission Design | Physical Parameters | Discovery Circumstances ]

[ show orbit diagram ]
Orbital Elements at Epoch 2459000.5 (2020-May-31.0) TDB
Reference: JPL 24 (heliocentric ecliptic J2000)
 Element Value Uncertainty (1-sigma)   Units 
e .119915687752251 2.9826e-08  
a 2.252194886847945 7.55e-09 au
q 1.98212138803947 6.8621e-08 au
i 5.621540813722811 4.1156e-06 deg
node 189.9662422347368 3.4272e-05 deg
peri 283.3560407197114 3.9587e-05 deg
M 18.12678623720518 1.7851e-05 deg
tp 2458938.337897998373
(2020-Mar-29.83789800)
6.1269e-05 TDB
period 1234.5462912038
3.38
6.2078e-06
1.7e-08
d
yr
n .2916051042921735 1.4663e-09 deg/d
Q 2.522268385656419 8.4553e-09 au
  Orbit Determination Parameters
   # obs. used (total)      857  
   data-arc span      8341 days (22.84 yr)  
   first obs. used      1997-04-01  
   last obs. used      2020-02-01  
   planetary ephem.      DE431  
   SB-pert. ephem.      SB431-N16  
   condition code      0  
   norm. resid. RMS      .50042  
   source      ORB  
   producer      Otto Matic  
   solution date      2020-Feb-23 20:49:39  

Additional Information
 Earth MOID = 1.00734 au 
 Jupiter MOID = 2.57325 au 
 T_jup = 3.610 
[ show covariance matrix ]

Ephemeris | Orbit Diagram | Orbital Elements | Mission Design | Physical Parameters | Discovery Circumstances ]

Physical Parameter Table
Parameter Symbol Value Units Sigma Reference Notes
absolute magnitude H 16.1   n/a MPO449536  
diameter diameter 1.578 km 0.371 urn:nasa:pds:neowise_diameters_albedos::2.0[mainbelt] (http://adsabs.harvard.edu/abs/2011ApJ...741...68M)  
geometric albedo albedo 0.372   0.213 urn:nasa:pds:neowise_diameters_albedos::2.0[mainbelt] (http://adsabs.harvard.edu/abs/2011ApJ...741...68M)  

86399 (2000 AV140)          Discovered 2000-Jan-05 by LINEAR at Socorro
Reference: 20040830/Numbers.arcLast Updated: 2004-09-06

Alternate Designations
 2000 AV140 = 2002 TU225 
Ephemeris | Orbit Diagram | Orbital Elements | Mission Design | Physical Parameters | Discovery Circumstances ]
ABOUT SSD CREDITS/AWARDS PRIVACY/COPYRIGHT GLOSSARY LINKS
FirstGov 2020-Sep-26 10:37 UT
(server date/time)  
NASA Home Page
Site Manager:   Ryan S. Park
Webmaster  Alan B. Chamberlin